DW8086 Weather Reports


Display with metric or nautical units.
time (UTC)temp
F
wind
direction
speed
MPH
gust
MPH
rain 1hr
in
rain 24hr
in
rain mn
in
humidity
%
barometer
mb
20260905094017 72 0.0 0.0 0.00 0.00 0.00 76 1010.3
20260905093037 73 0.0 0.0 0.00 0.00 0.00 76 1010.3
20260905092017 73 0.0 0.0 0.00 0.00 0.00 76 1010.3
20260905091017 73 0.0 0.0 0.00 0.00 0.00 76 1010.3
20260905090017 73 0.0 0.0 0.00 0.00 0.00 77 1010.2
20260905085017 73 0.0 0.0 0.00 0.00 0.00 77 1010.1
20260905084017 73 0.0 0.0 0.00 0.00 0.00 77 1010.0
20260905083017 73 0.0 0.0 0.00 0.00 0.00 78 1010.1
20260905082017 73 0.0 0.0 0.00 0.00 0.00 79 1010.1
20260905081057 73 0.0 0.0 0.00 0.00 0.00 79 1010.2
20260905080017 73 0.0 0.0 0.00 0.00 0.00 79 1010.3
20260905075017 73 0.0 0.0 0.00 0.00 0.00 79 1010.2
20260905074016 73 0.0 0.0 0.00 0.00 0.00 78 1010.2
20260905073016 73 0.0 0.0 0.00 0.00 0.00 78 1010.1
20260905072037 73 0.0 0.0 0.00 0.00 0.00 78 1010.3
20260905071017 73 0.0 0.0 0.00 0.00 0.00 78 1010.3
20260905070037 73 0.0 0.0 0.00 0.00 0.00 78 1010.4
20260905065037 74 0.0 0.0 0.00 0.00 0.00 77 1010.4
20260905064037 74 0.0 0.0 0.00 0.00 0.00 77 1010.4
20260905063037 74 0.0 0.0 0.00 0.00 0.00 76 1010.5
20260905062017 74 0.0 0.0 0.00 0.00 0.00 76 1010.5
20260905061017 74 0.0 0.0 0.00 0.00 0.00 75 1010.5
20260905060017 74 0.0 0.0 0.00 0.00 0.00 75 1010.7
20260905055017 74 0.0 0.0 0.00 0.00 0.00 75 1010.8
20260905054017 75 0.0 0.0 0.00 0.00 0.00 75 1010.8
20260905053037 74 0.0 0.0 0.00 0.00 0.00 75 1010.8
20260905052037 75 0.0 0.0 0.00 0.00 0.00 75 1010.9
20260905051017 75 0.0 0.0 0.00 0.00 0.00 75 1010.9
20260905050017 75 0.0 0.0 0.00 0.00 0.00 75 1011.1
20260905045017 75 0.0 0.0 0.00 0.00 0.00 74 1011.0
20260905044017 75 0.0 0.0 0.00 0.00 0.00 74 1011.2
20260905043017 75 0.0 0.0 0.00 0.00 0.00 74 1011.2
20260905042017 75 0.0 0.0 0.00 0.00 0.00 74 1011.3
20260905041017 75 0.0 0.0 0.00 0.00 0.00 75 1011.4
20260905040017 75 0.0 0.0 0.00 0.00 0.00 76 1011.4
20260905035016 75 0.0 0.0 0.00 0.00 0.00 76 1011.4
20260905034015 75 0.0 0.0 0.00 0.00 0.00 77 1011.3
20260905033016 75 0.0 0.0 0.00 0.00 0.00 78 1011.3
20260905032015 75 0.0 0.0 0.00 0.00 0.00 78 1011.2
20260905031016 75 0.0 0.0 0.00 0.00 0.00 79 1011.1
20260905030015 75 0.0 0.0 0.00 0.00 0.00 79 1011.1
20260905025016 75 0.0 0.0 0.00 0.00 0.00 80 1011.1
20260905024015 75 0.0 0.0 0.00 0.00 0.00 80 1011.1
20260905023016 75 0.0 0.0 0.00 0.00 0.00 82 1011.1
20260905022015 76 0.0 0.0 0.00 0.00 0.00 82 1011.1
20260905021016 76 0.0 0.0 0.00 0.00 0.00 82 1011.1
20260905020016 76 0.0 0.0 0.00 0.00 0.00 81 1011.1
20260905015016 76 0.0 0.0 0.00 0.00 0.00 80 1011.2
20260905014016 76 0.0 0.0 0.00 0.00 0.00 79 1011.2
20260905013016 77 0.0 0.0 0.00 0.00 0.00 79 1011.2
20260905012056 77 0.0 0.0 0.00 0.00 0.00 79 1011.1
20260905011056 77 0.0 0.0 0.00 0.00 0.00 79 1011.3
20260905010036 78 0.0 0.0 0.00 0.00 0.00 79 1011.1
20260905005016 78 0.0 0.0 0.00 0.00 0.00 77 1011.0
20260905004015 78 0.0 0.0 0.00 0.00 0.00 78 1011.1
20260905003016 79 0.0 0.0 0.00 0.00 0.00 78 1010.8
20260905002016 79 0.0 0.0 0.00 0.00 0.00 78 1010.7
20260905001016 80 0.0 0.0 0.00 0.00 0.00 77 1010.8
20260905000016 80 0.0 0.0 0.00 0.00 0.00 77 1010.7
20260904235015 80 0.0 0.0 0.00 0.00 0.00 77 1010.8
20260904234016 81 0.0 0.0 0.00 0.00 0.00 76 1010.8
20260904233016 81 0.0 0.0 0.00 0.00 0.00 76 1010.8
20260904232016 82 0.0 0.0 0.00 0.00 0.00 74 1010.8
20260904231015 82 0.0 0.0 0.00 0.00 0.00 71 1010.9
20260904230016 82 0.0 0.0 0.00 0.00 0.00 71 1010.8
20260904225016 83 0.0 0.0 0.00 0.00 0.00 70 1010.8
20260904224016 83 0.0 0.0 0.00 0.00 0.00 70 1010.9
20260904223016 84 0.0 0.0 0.00 0.00 0.00 69 1011.0
20260904222016 84 270 1.0 2.0 0.00 0.00 0.00 66 1010.9
20260904221016 85 0.0 1.0 0.00 0.00 0.00 66 1010.8
20260904220016 85 0.0 0.0 0.00 0.00 0.00 67 1010.7
20260904215016 86 0.0 1.0 0.00 0.00 0.00 66 1010.8
20260904214016 86 248 1.0 3.0 0.00 0.00 0.00 64 1010.7
20260904213036 87 0.0 2.0 0.00 0.00 0.00 63 1010.7
20260904212016 87 270 1.0 6.0 0.00 0.00 0.00 64 1010.6
20260904211016 87 0.0 0.0 0.00 0.00 0.00 63 1010.6
20260904210016 87 180 1.0 3.0 0.00 0.00 0.00 64 1010.6
20260904205016 86 225 1.0 4.0 0.00 0.00 0.00 66 1010.7
20260904204036 86 203 1.0 3.0 0.00 0.00 0.00 64 1010.7
20260904203016 88 248 2.0 4.0 0.00 0.00 0.00 62 1010.8
20260904202016 88 203 1.0 4.0 0.00 0.00 0.00 63 1010.9
20260904201016 88 270 1.0 3.0 0.00 0.00 0.00 63 1011.0
20260904200016 88 225 1.0 3.0 0.00 0.00 0.00 63 1011.2
20260904195036 87 0.0 1.0 0.00 0.00 0.00 66 1011.2
20260904194016 87 248 3.0 4.0 0.00 0.00 0.00 64 1011.4
20260904193016 87 270 3.0 6.0 0.00 0.00 0.00 63 1011.5
20260904192016 87 0.0 3.0 0.00 0.00 0.00 62 1011.5
20260904191036 87 248 4.0 7.0 0.00 0.00 0.00 62 1011.5
20260904190016 87 248 3.0 6.0 0.00 0.00 0.00 64 1011.6
20260904185016 87 270 4.0 7.0 0.00 0.00 0.00 64 1011.7
20260904184016 88 248 1.0 2.0 0.00 0.00 0.00 63 1011.7
20260904183016 87 0.0 1.0 0.00 0.00 0.00 67 1011.7
20260904182036 87 225 1.0 2.0 0.00 0.00 0.00 64 1011.8
20260904181016 87 0.0 1.0 0.00 0.00 0.00 66 1011.8
20260904180016 87 0.0 0.0 0.00 0.00 0.00 66 1011.9
20260904175016 87 270 1.0 2.0 0.00 0.00 0.00 64 1011.8
20260904174016 87 0.0 1.0 0.00 0.00 0.00 64 1011.9
20260904173016 86 0.0 1.0 0.00 0.00 0.00 66 1011.8
20260904172016 86 248 1.0 5.0 0.00 0.00 0.00 66 1011.9
20260904171016 85 270 2.0 4.0 0.00 0.00 0.00 66 1011.8
20260904170036 86 0.0 2.0 0.00 0.00 0.00 64 1012.0
20260904165036 86 203 2.0 5.0 0.00 0.00 0.00 65 1011.9
20260904164036 86 338 1.0 3.0 0.00 0.00 0.00 66 1011.9
20260904163016 87 0.0 1.0 0.00 0.00 0.00 65 1012.0
20260904162016 87 293 1.0 4.0 0.00 0.00 0.00 61 1012.0
20260904161016 86 0.0 2.0 0.00 0.00 0.00 66 1012.0
20260904160016 86 270 1.0 3.0 0.00 0.00 0.00 66 1012.1
20260904155016 86 0.0 1.0 0.00 0.00 0.00 65 1012.0
20260904154016 86 0.0 0.0 0.00 0.00 0.00 67 1012.1
20260904153016 86 0.0 1.0 0.00 0.00 0.00 70 1012.3
20260904152056 86 0.0 1.0 0.00 0.00 0.00 71 1012.4
20260904151016 85 315 1.0 2.0 0.00 0.00 0.00 70 1012.4
20260904150016 84 0.0 1.0 0.00 0.00 0.00 71 1012.4
20260904145016 84 180 1.0 3.0 0.00 0.00 0.00 74 1012.4
20260904144016 84 0.0 1.0 0.00 0.00 0.00 74 1012.4
20260904143016 83 0.0 1.0 0.00 0.00 0.00 75 1012.4
20260904142016 83 0 1.0 3.0 0.00 0.00 0.00 77 1012.4
20260904141019 83 0.0 1.0 0.00 0.00 0.00 78 1012.3
20260904140016 82 270 1.0 4.0 0.00 0.00 0.00 80 1012.2
20260904135016 81 0.0 1.0 0.00 0.00 0.00 81 1012.2
20260904134016 81 0 1.0 4.0 0.00 0.00 0.00 82 1012.2
20260904133016 80 135 1.0 2.0 0.00 0.00 0.00 83 1012.2
20260904132016 80 180 1.0 4.0 0.00 0.00 0.00 84 1012.0
20260904131016 80 248 1.0 3.0 0.00 0.00 0.00 86 1012.1
20260904130016 80 248 1.0 5.0 0.00 0.00 0.00 86 1012.1
20260904125016 79 270 1.0 8.0 0.00 0.00 0.00 87 1012.0
20260904124016 78 248 2.0 6.0 0.00 0.00 0.00 89 1012.0
20260904123016 77 0.0 0.0 0.00 0.00 0.00 90 1012.0
20260904122036 77 0.0 0.0 0.00 0.00 0.00 91 1011.9
20260904121016 76 0.0 0.0 0.00 0.00 0.00 92 1011.9
20260904120016 75 0.0 0.0 0.00 0.00 0.00 92 1011.7
20260904115016 75 0.0 2.0 0.00 0.00 0.00 92 1011.9
20260904114016 75 0.0 0.0 0.00 0.00 0.00 92 1011.8
20260904113016 75 0.0 0.0 0.00 0.00 0.00 92 1011.7
20260904112016 75 0.0 0.0 0.00 0.00 0.00 92 1011.6
20260904111016 75 0.0 0.0 0.00 0.00 0.00 92 1011.4
20260904110016 75 0.0 1.0 0.00 0.00 0.00 92 1011.2
20260904105016 75 0.0 1.0 0.00 0.00 0.00 92 1011.2
20260904104016 75 0.0 0.0 0.00 0.00 0.00 92 1011.1
20260904103016 75 248 1.0 3.0 0.00 0.00 0.00 92 1011.0
20260904102016 75 0.0 0.0 0.00 0.00 0.00 92 1011.0
20260904101016 75 0.0 0.0 0.00 0.00 0.00 92 1011.0
20260904100016 75 0.0 2.0 0.00 0.00 0.00 92 1010.9
20260904095016 75 0.0 1.0 0.00 0.00 0.00 92 1011.1